Terminal Aerodrome Forecast
Issued by NWS

Home | Current Version | Previous Version | Text Only | Print | Product List | Glossary On
Versions: 1 2 3 4 5 6 7 8 9 10 11 12 13 14 15 16
000
FTUS43 KAPX 221700
TAFMBL
TAF
KMBL 221726Z 2218/2318 25008KT P6SM OVC050
     FM222000 24008KT P6SM SCT050
     FM222300 20003KT P6SM SKC
     FM231300 25006KT P6SM SKC
      AMD LTD TO CLD VIS AND WIND=

USA.gov is the U.S. government's official web portal to all federal, state and local government web resources and services.